EHI
0 0 0 0 0 0 0 0 1 3 8 11 12 16 22 26 28 31 36 42 49 55 58 59 57 51 47 43 39 36 36 37 38 36 31 29 30 34 35 34 33 34 32 30
0 0 0 0 0 0 0 1 2 4 8 11 14 18 23 26 28 30 34 38 45 52 57 60 59 53 48 45 42 39 39 38 37 34 30 29 30 34 36 35 34 34 33 31
0 0 0 0 0 0 0 1 2 6 10 13 16 21 25 28 31 33 33 33 38 45 51 55 56 53 50 48 45 41 40 38 37 34 30 28 29 34 38 37 35 35 34 33
0 0 0 0 0 0 1 2 4 10 15 17 18 21 25 28 32 35 35 34 35 39 43 45 47 48 48 47 43 38 35 35 35 34 32 29 30 34 37 35 33 32 32 33
0 0 0 0 0 1 2 4 8 12 16 16 15 16 20 25 29 34 38 39 38 38 38 39 40 42 43 42 37 33 30 30 30 32 33 32 31 33 33 30 27 27 28 29
0 0 0 1 1 2 4 8 12 14 14 13 12 14 19 24 28 34 40 42 40 39 40 40 39 39 39 37 32 28 26 26 27 29 31 32 32 33 30 24 20 19 21 21
0 0 0 1 2 4 6 11 13 14 14 13 15 18 22 26 29 34 38 39 38 39 41 43 41 38 38 36 31 26 25 26 28 29 28 28 30 31 28 22 16 14 14 15
0 0 1 2 2 4 8 10 10 12 14 15 16 19 23 26 30 32 34 32 33 37 40 41 39 37 37 37 32 27 26 29 31 30 26 26 28 29 26 21 18 15 14 12
0 1 3 3 2 4 5 6 6 9 12 13 14 16 21 25 26 28 28 26 29 35 37 36 35 33 34 35 33 28 27 30 31 29 27 26 26 25 24 21 19 18 15 13
1 2 3 3 3 3 4 4 6 9 11 11 12 16 23 27 27 27 27 27 29 32 32 30 29 29 29 29 30 27 25 24 25 25 24 24 23 22 21 19 17 16 15 13
4 4 5 5 4 4 5 6 8 10 11 11 14 20 27 31 31 32 31 29 28 27 25 25 26 25 23 24 25 23 19 17 16 17 19 19 18 16 16 15 12 11 12 12
5 5 6 7 5 4 5 7 9 9 10 11 15 22 28 30 32 33 30 26 24 21 21 23 23 21 20 20 20 19 17 14 11 11 14 15 13 11 9 8 6 5 7 8
5 5 5 6 5 4 3 4 6 6 8 11 17 22 24 26 28 27 24 20 18 19 21 21 19 18 18 17 16 15 14 12 9 10 12 12 10 9 6 4 2 2 2 2
3 3 4 4 4 3 2 3 3 5 8 14 19 21 21 21 22 20 17 15 16 19 20 18 17 16 16 14 12 10 9 7 7 9 11 10 8 7 5 4 4 3 2 1
2 2 2 3 3 3 3 3 4 7 11 17 20 19 17 17 17 17 16 15 16 16 15 12 12 13 12 11 9 7 5 3 4 7 9 8 6 4 4 4 6 6 6 4
1 1 2 2 3 3 4 5 7 10 14 18 18 17 15 15 16 16 16 16 15 13 10 8 8 8 8 6 5 4 3 2 2 5 6 5 4 3 4 5 6 7 6 5
2 2 2 2 3 4 5 7 10 13 15 15 14 13 12 13 14 15 14 13 12 10 8 7 7 6 4 3 2 1 1 1 1 3 4 4 4 3 4 5 6 6 5 4
1 2 2 3 5 6 9 10 12 13 12 10 9 8 8 10 11 12 9 7 7 7 7 7 6 5 3 1 0 0 1 1 2 3 4 4 4 3 3 4 4 5 4 3
0 1 3 5 7 10 12 12 12 11 9 7 6 6 6 8 10 9 6 4 5 6 6 5 4 3 3 1 1 1 2 3 3 3 3 4 3 3 3 3 3 3 3 2
1 2 4 7 9 11 12 12 12 10 8 7 7 7 7 8 9 7 5 5 6 7 6 3 1 1 2 2 2 3 3 3 3 3 3 3 3 3 3 3 3 2 1 1
3 4 6 7 9 10 10 10 10 9 9 9 8 8 7 7 6 6 5 5 6 6 4 2 0 0 1 1 2 2 3 3 3 3 3 3 3 3 3 2 2 1 1 0
6 7 7 8 8 8 7 7 8 8 8 8 8 7 6 4 3 3 3 3 3 3 1 0 0 0 0 0 1 1 1 2 2 2 2 2 3 3 3 2 2 1 1 0
8 8 9 8 8 8 7 6 6 7 7 7 6 5 3 2 2 1 1 1 1 0 0 0 0 0 0 0 0 0 0 1 1 1 1 1 1 3 3 3 3 3 3 2
8 8 8 7 7 8 8 7 6 6 6 5 4 2 1 1 1 0 0 0 0 0 0 0 0 0 0 0 0 0 0 0 0 0 0 0 1 2 3 3 3 4 3 2
7 6 6 6 7 8 8 7 6 5 4 3 2 0 0 0 0 0 0 0 0 0 0 0 0 0 0 0 0 0 0 0 0 0 0 0 1 2 2 1 1 1 1 1
6 6 7 8 8 7 6 5 4 2 1 1 0 0 0 0 0 0 1 0 0 0 0 0 0 0 0 1 0 0 0 0 1 1 1 1 2 1 1 0 0 0 0 0
7 8 9 9 8 7 5 4 2 1 0 0 0 0 0 0 0 0 1 0 0 0 0 0 0 0 0 1 0 0 0 1 2 2 2 2 2 1 1 0 0 0 0 0
Wind_Speed
14 15 15 14 13 13 13 12 13 7 5 1 2 4 4 5 4 4 5 5 4 4 4 4 4 4 4 4 4 4 4 4 3 3 2 2 2 2 2 3 3 2 2 2
14 16 16 16 14 13 13 12 11 8 5 2 3 4 4 3 3 4 4 4 4 4 4 3 3 3 3 3 3 3 3 3 3 3 2 2 2 2 2 2 2 2 2 2
12 14 15 15 13 12 11 10 9 6 2 2 3 3 2 2 2 3 3 3 3 3 4 4 3 3 3 2 2 2 2 2 3 3 3 3 3 2 2 3 3 3 2 2
11 12 15 10 9 9 8 5 4 2 2 4 3 2 4 3 2 3 2 2 2 2 3 3 3 3 2 2 2 2 2 2 2 2 3 3 2 2 2 2 3 2 2 2
10 13 14 11 7 7 6 2 5 4 4 3 2 3 5 5 4 3 2 2 2 1 1 2 3 3 3 2 2 3 2 2 2 2 2 2 2 2 2 2 3 3 3 3
10 12 12 7 6 6 5 2 5 4 4 4 2 1 2 4 4 3 3 2 2 1 2 2 3 2 2 2 2 2 2 2 2 2 2 2 2 3 3 3 3 4 3 4
11 12 9 6 7 6 5 2 6 5 5 5 5 3 2 3 4 4 3 2 2 2 2 2 2 2 2 1 1 1 1 1 2 2 3 3 3 3 3 4 4 4 5 4
8 11 5 7 6 5 4 5 6 6 6 5 4 3 2 3 4 4 3 3 2 2 2 2 2 2 1 0 0 0 0 1 2 3 4 3 3 4 4 5 5 5 5 4
4 3 1 3 3 4 3 4 5 5 6 4 3 2 2 2 2 2 2 2 2 2 2 1 2 1 0 1 1 1 1 2 2 3 3 3 4 4 4 4 5 4 4 4
4 2 3 3 3 3 4 5 5 4 5 4 2 2 1 1 1 1 0 1 1 1 1 1 1 1 1 1 1 0 1 2 2 3 4 3 3 4 4 4 4 3 3 3
5 5 5 4 4 4 5 5 4 4 4 4 3 2 1 1 0 1 1 0 0 0 0 0 1 1 1 1 1 1 2 3 3 4 3 3 3 3 3 2 2 2 2 2
5 4 5 5 5 5 5 5 5 4 4 4 3 2 2 1 1 0 1 1 1 1 1 1 1 0 0 0 0 2 3 3 3 4 3 3 3 2 2 2 3 3 2 2
6 6 6 6 6 6 5 4 4 4 3 3 3 2 1 0 0 1 0 1 1 1 1 1 1 1 0 0 1 2 3 4 4 4 4 3 3 2 2 2 2 3 3 3
5 6 6 6 5 4 4 4 3 3 2 2 2 1 1 1 1 0 1 1 1 1 1 1 1 1 1 1 2 3 4 4 4 4 4 3 3 3 3 3 2 2 3 4
6 7 6 5 5 4 3 3 2 1 1 1 2 2 2 1 0 1 1 1 1 1 2 1 2 2 1 2 3 4 4 3 3 4 4 4 3 3 3 3 2 1 1 1
7 7 4 4 4 4 3 3 2 1 1 1 1 1 1 1 1 2 2 1 1 2 2 1 2 2 2 3 4 4 3 5 5 4 4 3 3 3 3 3 2 1 1 1
7 5 3 3 3 3 3 2 1 1 1 1 1 1 2 1 2 2 2 2 1 2 2 2 2 3 3 3 4 4 4 4 5 4 3 3 3 3 3 2 2 1 1 1
4 4 4 4 3 2 1 1 1 1 1 1 1 1 2 2 2 2 2 2 1 1 1 2 2 3 3 4 4 4 4 4 3 3 3 2 3 3 3 2 2 2 1 1
3 3 3 3 2 2 1 1 1 1 1 1 0 1 2 2 2 2 2 2 2 2 2 2 2 2 3 3 5 4 4 4 3 2 2 2 3 3 2 2 2 1 1 0
3 3 3 2 2 2 1 1 1 1 1 1 1 1 1 2 2 3 2 2 2 2 2 2 2 2 3 3 4 4 4 3 3 2 2 2 2 2 2 2 2 1 0 0
3 3 3 2 3 2 2 1 1 1 1 1 1 1 1 2 2 2 2 2 2 3 3 2 2 2 3 4 4 4 3 3 3 2 3 3 2 2 2 2 2 1 1 0
3 3 3 2 2 2 3 2 2 2 2 1 2 2 2 2 2 2 1 2 2 2 2 1 2 3 4 5 4 3 3 3 2 2 2 2 2 2 2 2 1 1 1 0
2 2 2 2 1 1 1 1 1 1 1 1 1 2 2 2 2 2 2 1 1 1 1 2 3 3 4 3 4 4 3 2 2 2 2 2 2 1 1 1 1 1 1 1
2 2 2 2 2 1 1 1 1 1 1 1 1 1 2 2 2 1 1 0 1 0 1 1 0 2 3 3 3 3 3 3 3 2 2 2 1 1 1 1 1 1 1 2
2 2 2 2 2 2 1 1 1 1 1 1 1 1 1 1 2 1 1 1 1 1 1 2 2 2 2 3 3 3 3 2 2 3 3 2 2 2 1 1 2 2 2 2
2 2 1 2 2 2 1 1 0 1 1 2 1 1 1 1 1 1 0 1 1 1 2 0 1 2 2 2 2 2 2 2 2 1 2 2 2 2 2 2 2 2 2 1
2 1 1 1 2 2 2 2 1 2 2 3 3 2 2 1 1 1 1 1 1 1 1 1 1 1 2 2 2 2 2 2 2 2 2 2 2 2 3 2 2 1 1 1
Wind_Direction
271 274 276 276 273 267 259 265 272 273 265 239 136 121 115 118 129 145 133 126 125 130 137 140 145 153 168 172 174 175 177 186 190 187 186 203 205 209 225 241 239 228 233 246
269 268 271 270 263 268 268 264 268 265 274 69 82 97 114 129 135 137 133 137 134 129 134 144 151 160 164 165 161 161 175 189 181 183 194 210 209 212 218 235 247 243 244 251
268 270 274 265 267 264 266 266 274 278 324 69 67 68 87 113 125 118 132 134 135 143 150 150 145 140 149 140 138 144 164 174 186 192 199 215 224 214 219 232 237 230 233 236
265 267 262 269 290 283 272 286 324 360 67 63 58 66 63 56 84 87 84 113 120 143 151 149 148 143 128 140 150 156 167 174 192 204 210 212 216 235 240 242 247 237 230 232
264 262 260 265 286 299 288 319 26 23 22 45 66 71 62 46 54 67 65 64 90 112 140 144 143 143 149 155 154 173 184 191 205 216 218 226 234 239 245 242 251 248 234 235
259 266 268 287 317 326 297 248 28 25 357 351 10 352 41 30 35 44 52 60 75 68 85 116 129 138 154 175 177 195 198 210 213 218 214 235 247 252 253 249 247 250 241 240
252 258 264 334 327 302 268 6 18 15 3 359 2 5 25 32 35 30 30 53 74 82 75 89 115 129 146 157 212 223 205 238 220 229 228 226 232 246 254 252 251 252 251 241
255 260 264 3 343 356 20 24 12 6 6 21 21 28 35 39 40 26 23 42 55 73 79 87 110 112 109 122 14 15 286 268 255 242 243 228 224 236 244 247 246 244 247 248
275 280 9 14 22 20 16 14 11 6 345 353 355 16 43 62 52 50 20 35 39 65 84 86 113 128 141 76 62 333 284 276 278 275 259 231 229 237 243 246 248 246 239 242
270 270 310 355 17 9 6 360 344 338 323 336 350 348 358 63 58 86 60 23 8 45 67 83 106 118 140 136 125 259 286 291 277 270 265 249 245 241 244 253 256 265 268 269
278 290 297 323 348 352 352 338 334 334 333 347 350 348 33 25 352 178 150 112 36 56 65 152 135 131 139 124 166 252 268 271 270 264 268 254 252 260 256 253 257 264 277 281
290 310 304 313 334 334 329 322 331 338 344 349 352 359 23 13 0 130 152 171 173 214 226 219 168 154 89 85 264 271 271 271 272 270 261 248 248 261 283 248 237 234 234 246
322 311 301 307 316 326 317 319 323 322 329 349 1 21 18 347 36 65 86 214 217 233 220 203 195 208 276 266 256 274 275 276 281 284 275 263 256 258 264 270 253 233 232 233
338 321 300 296 304 307 307 310 315 331 340 350 352 5 47 62 80 114 220 237 249 251 248 231 227 247 244 254 257 267 268 265 275 282 278 274 273 271 268 265 266 260 245 239
324 307 297 309 308 301 298 296 302 309 330 351 32 40 54 40 344 339 312 238 245 270 275 266 264 281 284 274 271 269 270 274 276 282 278 274 271 277 280 282 283 286 303 230
313 303 299 293 288 289 284 276 276 285 15 39 33 27 49 15 349 345 321 278 241 256 267 275 285 283 277 283 283 270 254 260 264 265 265 273 281 285 286 286 280 272 253 271
297 298 303 289 288 292 301 312 332 0 42 61 37 14 11 14 4 343 334 338 282 263 271 269 274 292 288 284 280 281 278 262 251 259 260 272 276 278 280 282 280 283 273 153
294 307 307 302 299 300 315 349 36 62 82 83 61 18 351 338 341 345 338 337 321 306 301 279 263 273 281 284 278 275 273 268 259 259 264 273 278 274 275 282 290 294 292 126
333 332 321 319 333 342 346 15 44 63 73 61 43 360 353 350 345 337 337 340 323 312 318 324 311 291 289 298 292 271 273 272 265 261 261 251 256 270 277 279 281 281 284 102
344 339 336 348 1 6 4 28 7 25 36 11 3 355 348 336 327 328 337 337 332 329 336 338 320 321 313 309 296 286 282 278 283 280 278 275 278 284 289 302 307 298 287 94
342 334 347 5 7 6 1 7 15 18 25 22 5 347 343 340 332 331 327 323 353 357 333 323 315 327 328 325 293 283 284 280 282 291 291 285 284 292 304 320 327 325 321 326
340 335 345 358 6 15 16 16 23 10 3 356 336 327 320 318 319 323 334 321 332 5 306 313 350 5 346 321 298 304 304 300 299 300 294 296 298 298 297 304 298 275 265 306
339 333 329 330 335 358 337 319 299 277 282 284 288 293 298 302 296 299 306 313 323 7 306 4 18 2 340 310 309 315 316 320 320 314 302 296 293 288 287 296 286 276 291 318
319 315 315 311 308 315 313 316 321 314 280 265 263 273 284 291 286 278 284 223 33 9 317 75 351 320 302 297 306 311 326 334 327 323 325 330 332 330 325 322 336 13 18 3
297 281 289 296 288 269 251 255 316 317 295 277 271 281 283 290 302 326 336 50 99 242 253 180 206 247 269 306 322 327 338 351 351 348 352 352 343 341 344 346 9 19 11 6
294 292 294 289 295 295 304 300 282 303 313 319 325 325 323 331 332 338 260 212 188 220 270 232 193 222 265 306 320 321 326 330 334 327 336 337 337 340 348 359 12 18 4 343
295 292 279 297 306 321 331 335 341 354 355 342 335 339 342 346 339 318 307 297 250 182 221 261 251 250 264 283 305 312 312 320 340 356 355 358 358 3 358 354 347 352 348 351